Regional Weather Roundup
Issued by NWS

Home | Current Version | Previous Version | Graphics & Text | Print | Product List | Glossary On
Versions: 1 2 3 4 5 6 7 8 9 10 11 12 13 14 15 16 17 18 19 20 21 22 23 24 25 26 27 28 29 30 31 32 33 34 35 36 37 38 39 40 41 42 43 44 45 46 47 48 49 50
000
ASUS43 KIND 240909
RWRIN

WEATHER ROUNDUP FOR INDIANA
NATIONAL WEATHER SERVICE INDIANAPOLIS IN
500 AM EDT THU APR 24 2014

NOTE: "FAIR" INDICATES FEW OR NO CLOUDS BELOW 12,000 FEET WITH NO
SIGNIFICANT WEATHER AND/OR OBSTRUCTIONS TO VISIBILITY.

* - STATION DOES NOT REPORT WEATHER SUCH AS PRECIPITATION OR FOG.

+ - STATION NOT QUALITY CONTROLLED BY THE NATIONAL WEATHER SERVICE.
    USE DATA WITH CAUTION...ESPECIALLY DEWPOINT AND RELATIVE
    HUMIDITY OBSERVATIONS.

INZ001>003-010>013-019-020-241000-
NORTHWEST INDIANA

CITY           SKY/WX    TMP DP  RH WIND       PRES   REMARKS
GARY /AIRPORT/ CLOUDY    43  37  78 N6        30.07S
LA PORTE +     DRIZZLE   45  34  66 E5        30.08R
MICHIGAN CITY+ LGT RAIN  45  32  61 CALM      30.07S
MONTICELLO +   CLOUDY    48  39  69 CALM      30.04R
RENSSELAER +   CLOUDY    46  41  81 NE9       30.05R
VALPARAISO     CLOUDY    43  38  82 NE6       30.06F

$$

LMZ046-743>745-241000-
SOUTHERN LAKE MICHIGAN

STATION/POSITION TIME  TEMP WIND        PRES
                       AIR  DIR/SP/G
                 (UTC) (F)  (DEG/KT/KT) (MB)
MICHIGAN CITY    0900   46   90/  3/  5   N/A

$$

INZ004-005-014>016-021>024-241000-
NORTH CENTRAL INDIANA

CITY           SKY/WX    TMP DP  RH WIND       PRES   REMARKS
GOSHEN         CLOUDY    49  32  52 E9        30.08R
LOGANSPORT +   CLOUDY    46  36  66 E7        30.06R
PERU/GRISSOM   CLOUDY    49  38  64 SE6       30.05R
ROCHESTER +    CLOUDY    50  34  53 E6        30.07R
SOUTH BEND     LGT RAIN  50  29  44 NE3       30.09R
WARSAW +       CLOUDY    48  30  49 E6        30.07S

$$

INZ006>009-017-018-025>027-241000-
NORTHEAST INDIANA

CITY           SKY/WX    TMP DP  RH WIND       PRES   REMARKS
ANGOLA *+      MOCLDY    45  34  65 SE5       30.09R
AUBURN +       CLOUDY    46  32  57 E3        30.10R
FORT WAYNE     CLOUDY    46  35  65 E6        30.10R

$$

INZ028-029-035-036-043>045-051>053-241000-
WEST CENTRAL INDIANA

CITY           SKY/WX    TMP DP  RH WIND       PRES   REMARKS
GREENCASTLE +  CLOUDY    46  34  61 E7        30.02R
LAFAYETTE      CLOUDY    50  36  58 E9        30.03R
TERRE HAUTE    MOCLDY    51  35  54 SE7       30.00S

$$

INZ030>032-037>040-046>048-054>057-064-065-241000-
CENTRAL INDIANA

CITY           SKY/WX    TMP DP  RH WIND       PRES   REMARKS
CP ATTERBURY + MOCLDY    50  36  57 SE6       30.04S
INDIANAPOLIS   CLOUDY    51  32  48 SE12      30.02S
-EAGLE CREEK   CLOUDY    51  32  48 SE7       30.03R
KOKOMO *+      CLOUDY    48  36  61 E7        30.05S
MARION +       CLOUDY    48  32  54 SE8       30.06S
MT COMFORT *+  CLOUDY    50  36  57 E10       30.04R
SHELBYVILLE    CLOUDY    52  34  50 E12       30.04R
ZIONSVILLE +   CLOUDY    51  33  49 SE6       30.04R

$$

INZ033-034-041-042-049-050-058-059-241000-
EAST CENTRAL INDIANA

CITY           SKY/WX    TMP DP  RH WIND       PRES   REMARKS
MUNCIE           N/A     48  35  60 SE9       30.06R

$$

INZ060-061-067>069-081>083-085>088-241000-
SOUTHWEST INDIANA

CITY           SKY/WX    TMP DP  RH WIND       PRES   REMARKS
EVANSVILLE     MOCLDY    50  36  58 CALM      29.99S
HUNTINGBURG *+ MOCLDY    48  34  57 SE6       30.00F
WASHINGTON +   MOCLDY    46  38  73 SE6       29.99F

$$

INZ062-063-066-070>080-084-089>092-241000-
SOUTH CENTRAL AND SOUTHEAST INDIANA

CITY           SKY/WX    TMP DP  RH WIND       PRES   REMARKS
BLOOMINGTON    MOCLDY    52  32  46 SE8       30.01S

$$




USA.gov is the U.S. government's official web portal to all federal, state and local government web resources and services.